Time,TemperatureF,DewpointF,PressureIn,WindDirection,WindDirectionDegrees,WindSpeedMPH,WindSpeedGustMPH,Humidity,HourlyPrecipIn,Conditions,Clouds,dailyrainin,SolarRadiationWatts/m^2,SoftwareType,DateUTC
2013-03-20 00:03:00,56.0,54.0,-100.00,SE,137,5.0,7.0,93,0.00,,,0.00,0.000000,,2013-03-20 10:03:00,
2013-03-20 00:12:00,56.0,54.0,-100.00,SE,137,5.0,7.0,93,0.00,,,0.00,0.000000,,2013-03-20 10:12:00,
2013-03-20 00:22:00,56.0,54.0,-100.00,SE,137,5.0,7.0,93,0.00,,,0.00,0.000000,,2013-03-20 10:22:00,
2013-03-20 00:32:00,56.0,54.0,-100.00,SE,137,5.0,7.0,93,0.00,,,0.00,0.000000,,2013-03-20 10:32:00,
2013-03-20 01:02:00,55.0,53.0,-100.00,SE,146,6.0,8.0,93,0.00,,,0.00,0.000000,,2013-03-20 11:02:00,
2013-03-20 01:12:00,55.0,53.0,-100.00,SE,146,6.0,8.0,93,0.00,,,0.00,0.000000,,2013-03-20 11:12:00,
2013-03-20 01:22:00,55.0,53.0,-100.00,SE,146,6.0,8.0,93,0.00,,,0.00,0.000000,,2013-03-20 11:22:00,
2013-03-20 01:32:00,55.0,53.0,-100.00,SE,146,6.0,8.0,93,0.00,,,0.00,0.000000,,2013-03-20 11:32:00,
2013-03-20 02:02:00,55.0,52.0,-100.00,SE,144,7.0,9.0,89,0.00,,,0.00,0.000000,,2013-03-20 12:02:00,
2013-03-20 02:12:00,55.0,52.0,-100.00,SE,144,7.0,9.0,89,0.00,,,0.00,0.000000,,2013-03-20 12:12:00,
2013-03-20 02:22:00,55.0,52.0,-100.00,SE,144,7.0,9.0,89,0.00,,,0.00,0.000000,,2013-03-20 12:22:00,
2013-03-20 02:32:00,55.0,52.0,-100.00,SE,144,7.0,9.0,89,0.00,,,0.00,0.000000,,2013-03-20 12:32:00,
2013-03-20 03:03:00,55.0,50.0,-100.00,SSE,150,8.0,11.0,82,0.00,,,0.00,0.000000,,2013-03-20 13:03:00,
2013-03-20 03:12:00,55.0,50.0,-100.00,SSE,150,8.0,11.0,82,0.00,,,0.00,0.000000,,2013-03-20 13:12:00,
2013-03-20 03:22:00,55.0,50.0,-100.00,SSE,150,8.0,11.0,82,0.00,,,0.00,0.000000,,2013-03-20 13:22:00,
2013-03-20 03:32:00,55.0,50.0,-100.00,SSE,150,8.0,11.0,82,0.00,,,0.00,0.000000,,2013-03-20 13:32:00,
2013-03-20 04:02:00,54.0,49.0,-100.00,SSE,148,8.0,13.0,82,0.00,,,0.00,0.000000,,2013-03-20 14:02:00,
2013-03-20 04:12:00,54.0,49.0,-100.00,SSE,148,8.0,13.0,82,0.00,,,0.00,0.000000,,2013-03-20 14:12:00,
2013-03-20 04:22:00,54.0,49.0,-100.00,SSE,148,8.0,13.0,82,0.00,,,0.00,0.000000,,2013-03-20 14:22:00,
2013-03-20 04:32:00,54.0,49.0,-100.00,SSE,148,8.0,13.0,82,0.00,,,0.00,0.000000,,2013-03-20 14:32:00,
2013-03-20 05:02:00,55.0,49.0,-100.00,SSE,148,9.0,12.0,81,0.00,,,0.00,0.000000,,2013-03-20 15:02:00,
2013-03-20 05:12:00,55.0,49.0,-100.00,SSE,148,9.0,12.0,81,0.00,,,0.00,0.000000,,2013-03-20 15:12:00,
2013-03-20 05:22:00,55.0,49.0,-100.00,SSE,148,9.0,12.0,81,0.00,,,0.00,0.000000,,2013-03-20 15:22:00,
2013-03-20 05:33:00,55.0,49.0,-100.00,SSE,148,9.0,12.0,81,0.00,,,0.00,0.000000,,2013-03-20 15:33:00,
2013-03-20 06:03:00,57.0,50.0,-100.00,SE,142,10.0,14.0,77,0.00,,,0.00,0.000000,,2013-03-20 16:03:00,
2013-03-20 06:12:00,57.0,50.0,-100.00,SE,142,10.0,14.0,77,0.00,,,0.00,0.000000,,2013-03-20 16:12:00,
2013-03-20 06:23:00,57.0,50.0,-100.00,SE,142,10.0,14.0,77,0.00,,,0.00,0.000000,,2013-03-20 16:23:00,
2013-03-20 06:32:00,57.0,50.0,-100.00,SE,142,10.0,14.0,77,0.00,,,0.00,0.000000,,2013-03-20 16:32:00,
2013-03-20 07:03:00,55.0,46.0,-100.00,SSE,147,10.0,14.0,71,0.00,,,0.00,1.000000,,2013-03-20 17:03:00,
2013-03-20 07:12:00,55.0,46.0,-100.00,SSE,147,10.0,14.0,71,0.00,,,0.00,1.000000,,2013-03-20 17:12:00,
2013-03-20 07:22:00,55.0,46.0,-100.00,SSE,147,10.0,14.0,71,0.00,,,0.00,1.000000,,2013-03-20 17:22:00,
2013-03-20 07:32:00,55.0,46.0,-100.00,SSE,147,10.0,14.0,71,0.00,,,0.00,1.000000,,2013-03-20 17:32:00,
2013-03-20 08:02:00,66.0,50.0,-100.00,SE,140,4.0,13.0,56,0.00,,,0.00,88.000000,,2013-03-20 18:02:00,
2013-03-20 08:12:00,66.0,50.0,-100.00,SE,140,4.0,13.0,56,0.00,,,0.00,88.000000,,2013-03-20 18:12:00,
2013-03-20 08:22:00,66.0,50.0,-100.00,SE,140,4.0,13.0,56,0.00,,,0.00,88.000000,,2013-03-20 18:22:00,
2013-03-20 08:32:00,66.0,50.0,-100.00,SE,140,4.0,13.0,56,0.00,,,0.00,88.000000,,2013-03-20 18:32:00,
2013-03-20 09:02:00,74.0,51.0,-100.00,ENE,58,1.0,7.0,45,0.00,,,0.00,112.000000,,2013-03-20 19:02:00,
2013-03-20 09:12:00,74.0,51.0,-100.00,ENE,58,1.0,7.0,45,0.00,,,0.00,112.000000,,2013-03-20 19:12:00,
2013-03-20 09:22:00,74.0,51.0,-100.00,ENE,58,1.0,7.0,45,0.00,,,0.00,112.000000,,2013-03-20 19:22:00,
2013-03-20 09:32:00,74.0,51.0,-100.00,ENE,58,1.0,7.0,45,0.00,,,0.00,112.000000,,2013-03-20 19:32:00,
2013-03-20 10:02:00,73.0,48.0,-100.00,NW,323,7.0,11.0,41,0.00,,,0.00,629.000000,,2013-03-20 20:02:00,
2013-03-20 10:12:00,73.0,48.0,-100.00,NW,323,7.0,11.0,41,0.00,,,0.00,629.000000,,2013-03-20 20:12:00,
2013-03-20 10:22:00,73.0,48.0,-100.00,NW,323,7.0,11.0,41,0.00,,,0.00,629.000000,,2013-03-20 20:22:00,
2013-03-20 10:32:00,73.0,48.0,-100.00,NW,323,7.0,11.0,41,0.00,,,0.00,629.000000,,2013-03-20 20:32:00,
2013-03-20 11:02:00,75.0,50.0,-100.00,NW,312,6.0,12.0,42,0.00,,,0.00,986.000000,,2013-03-20 21:02:00,
2013-03-20 11:12:00,75.0,50.0,-100.00,NW,312,6.0,12.0,42,0.00,,,0.00,986.000000,,2013-03-20 21:12:00,
2013-03-20 11:22:00,75.0,50.0,-100.00,NW,312,6.0,12.0,42,0.00,,,0.00,986.000000,,2013-03-20 21:22:00,
2013-03-20 11:33:00,75.0,50.0,-100.00,NW,312,6.0,12.0,42,0.00,,,0.00,986.000000,,2013-03-20 21:33:00,
2013-03-20 12:03:00,74.0,54.0,-100.00,NW,310,7.0,15.0,49,0.00,,,0.00,914.000000,,2013-03-20 22:03:00,
2013-03-20 12:12:00,74.0,54.0,-100.00,NW,310,7.0,15.0,49,0.00,,,0.00,914.000000,,2013-03-20 22:12:00,
2013-03-20 12:23:00,74.0,54.0,-100.00,NW,310,7.0,15.0,49,0.00,,,0.00,914.000000,,2013-03-20 22:23:00,
2013-03-20 12:32:00,74.0,54.0,-100.00,NW,310,7.0,15.0,49,0.00,,,0.00,914.000000,,2013-03-20 22:32:00,
2013-03-20 13:02:00,70.0,56.0,-100.00,NW,308,8.0,15.0,61,0.00,,,0.00,314.000000,,2013-03-20 23:02:00,
2013-03-20 13:12:00,70.0,56.0,-100.00,NW,308,8.0,15.0,61,0.00,,,0.00,314.000000,,2013-03-20 23:12:00,
2013-03-20 13:22:00,70.0,56.0,-100.00,NW,308,8.0,15.0,61,0.00,,,0.00,314.000000,,2013-03-20 23:22:00,
2013-03-20 13:32:00,70.0,56.0,-100.00,NW,308,8.0,15.0,61,0.00,,,0.00,314.000000,,2013-03-20 23:32:00,
2013-03-20 14:02:00,66.0,55.0,-100.00,NNW,347,7.0,14.0,67,0.00,,,0.00,100.000000,,2013-03-21 00:02:00,
2013-03-20 14:12:00,66.0,55.0,-100.00,NNW,347,7.0,14.0,67,0.00,,,0.00,100.000000,,2013-03-21 00:12:00,
2013-03-20 14:22:00,66.0,55.0,-100.00,NNW,347,7.0,14.0,67,0.00,,,0.00,100.000000,,2013-03-21 00:22:00,
2013-03-20 14:32:00,66.0,55.0,-100.00,NNW,347,7.0,14.0,67,0.00,,,0.00,100.000000,,2013-03-21 00:32:00,
2013-03-20 15:02:00,67.0,57.0,-100.00,North,354,4.0,13.0,71,0.00,,,0.00,78.000000,,2013-03-21 01:02:00,
2013-03-20 15:12:00,67.0,57.0,-100.00,North,354,4.0,13.0,71,0.00,,,0.00,78.000000,,2013-03-21 01:12:00,
2013-03-20 15:22:00,67.0,57.0,-100.00,North,354,4.0,13.0,71,0.00,,,0.00,78.000000,,2013-03-21 01:22:00,
2013-03-20 15:32:00,67.0,57.0,-100.00,North,354,4.0,13.0,71,0.00,,,0.00,78.000000,,2013-03-21 01:32:00,
2013-03-20 16:02:00,66.0,59.0,-100.00,NNW,348,3.0,9.0,79,0.00,,,0.00,59.000000,,2013-03-21 02:02:00,
2013-03-20 16:12:00,66.0,59.0,-100.00,NNW,348,3.0,9.0,79,0.00,,,0.00,59.000000,,2013-03-21 02:12:00,
2013-03-20 16:22:00,66.0,59.0,-100.00,NNW,348,3.0,9.0,79,0.00,,,0.00,59.000000,,2013-03-21 02:22:00,
2013-03-20 16:32:00,66.0,59.0,-100.00,NNW,348,3.0,9.0,79,0.00,,,0.00,59.000000,,2013-03-21 02:32:00,
2013-03-20 17:02:00,66.0,60.0,-100.00,NNE,17,3.0,7.0,81,0.00,,,0.00,91.000000,,2013-03-21 03:02:00,
2013-03-20 17:12:00,66.0,60.0,-100.00,NNE,17,3.0,7.0,81,0.00,,,0.00,91.000000,,2013-03-21 03:12:00,
2013-03-20 17:22:00,66.0,60.0,-100.00,NNE,17,3.0,7.0,81,0.00,,,0.00,91.000000,,2013-03-21 03:22:00,
2013-03-20 17:32:00,66.0,60.0,-100.00,NNE,17,3.0,7.0,81,0.00,,,0.00,91.000000,,2013-03-21 03:32:00,
2013-03-20 18:02:00,65.0,62.0,-100.00,East,80,4.0,7.0,91,0.00,,,0.00,51.000000,,2013-03-21 04:02:00,
2013-03-20 18:12:00,65.0,62.0,-100.00,East,80,4.0,7.0,91,0.00,,,0.00,51.000000,,2013-03-21 04:12:00,
2013-03-20 18:22:00,65.0,62.0,-100.00,East,80,4.0,7.0,91,0.00,,,0.00,51.000000,,2013-03-21 04:22:00,
2013-03-20 18:32:00,65.0,62.0,-100.00,East,80,4.0,7.0,91,0.00,,,0.00,51.000000,,2013-03-21 04:32:00,
2013-03-20 19:02:00,65.0,61.0,-100.00,SE,124,3.0,9.0,88,0.00,,,0.00,16.000000,,2013-03-21 05:02:00,
2013-03-20 19:12:00,65.0,61.0,-100.00,SE,124,3.0,9.0,88,0.00,,,0.00,16.000000,,2013-03-21 05:12:00,
2013-03-20 19:22:00,65.0,61.0,-100.00,SE,124,3.0,9.0,88,0.00,,,0.00,16.000000,,2013-03-21 05:22:00,
2013-03-20 19:32:00,65.0,61.0,-100.00,SE,124,3.0,9.0,88,0.00,,,0.00,16.000000,,2013-03-21 05:32:00,
2013-03-20 20:02:00,65.0,61.0,-100.00,SE,132,4.0,8.0,88,0.00,,,0.00,0.000000,,2013-03-21 06:02:00,
2013-03-20 20:12:00,65.0,61.0,-100.00,SE,132,4.0,8.0,88,0.00,,,0.00,0.000000,,2013-03-21 06:12:00,
2013-03-20 20:22:00,65.0,61.0,-100.00,SE,132,4.0,8.0,88,0.00,,,0.00,0.000000,,2013-03-21 06:22:00,
2013-03-20 20:32:00,65.0,61.0,-100.00,SE,132,4.0,8.0,88,0.00,,,0.00,0.000000,,2013-03-21 06:32:00,
2013-03-20 21:02:00,65.0,60.0,-100.00,East,85,0.0,7.0,83,0.00,,,0.00,0.000000,,2013-03-21 07:02:00,
2013-03-20 21:12:00,65.0,60.0,-100.00,East,85,0.0,7.0,83,0.00,,,0.00,0.000000,,2013-03-21 07:12:00,
2013-03-20 21:22:00,65.0,60.0,-100.00,East,85,0.0,7.0,83,0.00,,,0.00,0.000000,,2013-03-21 07:22:00,
2013-03-20 21:32:00,65.0,60.0,-100.00,East,85,0.0,7.0,83,0.00,,,0.00,0.000000,,2013-03-21 07:32:00,
2013-03-20 22:02:00,62.0,57.0,-100.00,SSW,195,3.0,3.0,85,0.00,,,0.00,0.000000,,2013-03-21 08:02:00,
2013-03-20 22:12:00,62.0,57.0,-100.00,SSW,195,3.0,3.0,85,0.00,,,0.00,0.000000,,2013-03-21 08:12:00,
2013-03-20 22:22:00,62.0,57.0,-100.00,SSW,195,3.0,3.0,85,0.00,,,0.00,0.000000,,2013-03-21 08:22:00,
2013-03-20 22:32:00,62.0,57.0,-100.00,SSW,195,3.0,3.0,85,0.00,,,0.00,0.000000,,2013-03-21 08:32:00,
2013-03-20 23:02:00,63.0,58.0,-100.00,SSE,164,0.0,5.0,85,0.00,,,0.00,0.000000,,2013-03-21 09:02:00,
2013-03-20 23:11:00,63.0,58.0,-100.00,SSE,164,0.0,5.0,85,0.00,,,0.00,0.000000,,2013-03-21 09:11:00,
2013-03-20 23:21:00,63.0,58.0,-100.00,SSE,164,0.0,5.0,85,0.00,,,0.00,0.000000,,2013-03-21 09:21:00,
2013-03-20 23:33:00,63.0,58.0,-100.00,SSE,164,0.0,5.0,85,0.00,,,0.00,0.000000,,2013-03-21 09:33:00,